Location: Brunembert
(50.7122°N, 1.8935°E)
Time: 04:52:07
(UTC+00:00)

Cosmos 1818 - Pass Details

Date: 22 April 2021
Orbit: 772 x 802 km, 65.0° (Epoch: 06 May)

Event Time Altitude Azimuth Distance (km) Brightness Sun altitude
Rises 20:22:41 0° 234° (SW) 3,282 7.0 -12.3°
Reaches altitude 10° 20:25:09 10° 238° (WSW) 2,360 6.3 -12.6°
Maximum altitude 20:30:29 57° 317° (NW) 937 4.3 -13.3°
Drops below altitude 10° 20:35:55 10° 36° (NE) 2,386 6.1 -13.9°
Sets 20:38:24 0° 41° (NE) 3,321 6.8 -14.2°
